Regional Weather Roundup
Issued by NWS Newport/Morehead, NC

Current Version | Previous Version | Text Only | Print | Product List | Glossary Off
Versions: 1 2 3 4 5 6 7 8 9 10 11 12 13 14 15 16 17 18 19 20 21 22 23 24 25 26 27 28 29 30 31 32 33 34 35 36 37 38 39 40 41 42 43 44 45 46 47 48 49 50
000 ASUS42 KMHX 231725 RWRMHX WEATHER ROUNDUP FOR EASTERN NORTH CAROLINA NATIONAL WEATHER SERVICE NEWPORT/MOREHEAD CITY NC 100 PM EDT THU MAR 23 2017 NOTE: "FAIR" INDICATES FEW OR NO CLOUDS BELOW 12,000 FEET WITH NO SIGNIFICANT WEATHER AND/OR OBSTRUCTIONS TO VISIBILITY NCZ015>017-031-032-045>047-102-103-231800- NORTH COAST CITY SKY/WX TMP DP RH WIND PRES REMARKS EDENTON SUNNY 47 22 37 NE8 30.63F ELIZABETH CITY SUNNY 43 20 39 NE14 30.64F KITTY HAWK NOT AVBL MANTEO SUNNY 42 23 47 NE14G20 30.63F $$ NCZ045>047-081-094-103-104-231800- CENTRAL COAST CITY SKY/WX TMP DP RH WIND PRES REMARKS FRISCO SUNNY 48 27 44 NE14G25 30.60S $$ NCZ095-097-098-100-101-231800- SOUTHERN COAST CITY SKY/WX TMP DP RH WIND PRES REMARKS BEAUFORT SUNNY 50 27 40 N17G24 30.59F CEDAR ISLAND NOT AVBL JACKSONVILLE NOT AVBL PINEY ISLAND SUNNY N/A N/A N/A NE15G22 30.61S WILMINGTON SUNNY 52 29 41 E10 30.57F $$ NCZ011>013-027>030-043-044-078>080-089-090>093-098-231800- COASTAL PLAIN CITY SKY/WX TMP DP RH WIND PRES REMARKS AHOSKIE NOT AVBL CLINTON SUNNY 51 26 38 S3 30.59F ELIZABETHTOWN SUNNY 52 25 34 N5 30.57F GOLDSBORO SUNNY 49 20 32 N8 30.58F GREENVILLE SUNNY 48 19 32 E6 30.59F HAVELOCK SUNNY 49 27 42 E14 30.60F KENANSVILLE SUNNY 50 23 34 N8 30.59F KINSTON SUNNY 48 23 37 NE10 30.61F NEW BERN SUNNY 49 26 41 NE10G18 30.60F RICHLANDS SUNNY 51 25 36 NE13 30.59F ROCKY MOUNT SUNNY 48 16 27 E8 30.61F WASHINGTON SUNNY 48 22 35 NE10 30.60F WHITEVILLE SUNNY 53 25 34 NE3 30.55F $$ AMZ130-135-150-152-154-156-158-170-250-252-270-ANZ085-086-088-633-658-670-231800- MARINE OBSERVATIONS STATION/POSITION TIME TEMP WIND PRES WAVE SWELL AIR SEA DIR/SP/G HT/PER HT/PER (UTC) (F) (DEG/KT/KT) (MB) (FT/S) (FT/S) CHESAPEAKE LIGHT NOT AVBL 64 E VA BEACH 1650 38 50 20/ 17/ 21 1036.5 5/ 8 3/ 8 DUCK 1700 37 47 30/ 14/ 16 1037.0 2 E DUCK 1700 47 N/A 5/ 7 2/11 OREGON INLET 1700 41 49 10/ 11/ 19 1036.9 13E OREGON INLT NOT AVBL HATTERAS CG 1700 42 51 20/ 14/ 20 1036.0 DIAMOND BUOY 1650 46 74 30/ 17/ 23 1035.5 9/11 7/11 CAPE LOOKOUT 1700 44 30/ 20/ 23 1035.6 BEAUFORT LAB 1700 46 51 30/ 11/ 16 1034.9 30 SE NEW RVR IN 1708 48 60/ 21/ 27 1034.9 30 SE NEW RVR IN 1713 64 N/A 7/ 6 2/11 27 SE WRIGHTSVLE 1708 49 62 60/ 17/ 25 1034.2 5 SE WRIGHTSVLE 1708 47 57 70/ 14/ 25 1035.4 225 S CAPE HAT 1650 61 72 30/ 19/ 25 1030.2 7/11 5/11 41 SE CHARLESTON 1650 60 70 40/ 21/ 25 1031.3 7/ 6 3/ 7 $$

USA.gov is the U.S. government's official web portal to all federal, state and local government web resources and services.